This demonstration page uses our WeatherBlox Daily Observations layout. Learn more.

Left ArrowRight Arrow

39.51506, -84.39828

Hourly Observations for July 29, 2015

Temp ( °F °C ) Dew Point ( °F °C ) Humidity (%) Winds ( mph kmh ) Pressure ( in mb ) Visibility ( mi km ) Precip ( " mm )
12:15 am 00:15 Partly Cloudy with Mist and Fog 77 24.9 73 22.7 88 88 N N/A 30.00 1016 5 8 N/A
12:35 am 00:35 Clear with Mist and Fog 74 23.6 71 21.6 89 89 N 3 6 29.97 1015 5 8 N/A
12:55 am 00:55 Clear with Mist and Fog 74 23.6 71 21.6 89 89 N N/A 29.97 1015 5 8 N/A
1:15 am 01:15 Clear with Mist and Fog 74 23.6 71 21.7 89 89 N N/A 29.97 1015 4 6 N/A
1:35 am 01:35 Clear with Mist and Fog 74 23.6 71 21.7 89 89 N 3 6 29.97 1015 4 6 N/A
1:55 am 01:55 Clear with Mist and Fog 74 23.6 71 21.7 89 89 N N/A 29.97 1015 4 6 N/A
2:15 am 02:15 Clear with Mist and Fog 74 23.6 71 21.8 90 90 N N/A 29.94 1014 4 6 N/A
2:35 am 02:35 Clear with Mist and Fog 74 23.6 71 21.7 89 89 N N/A 29.94 1014 5 8 N/A
2:55 am 02:55 Clear with Mist and Fog 74 23.6 71 21.7 89 89 N N/A 29.94 1014 4 6 N/A
3:15 am 03:15 Clear with Mist and Fog 74 23.6 71 21.8 90 90 N N/A 29.94 1014 4 6 N/A
3:35 am 03:35 Clear with Mist and Fog 74 23.6 71 21.9 90 90 N N/A 29.94 1014 3 5 N/A
3:55 am 03:55 Clear with Mist and Fog 74 23.6 72 22 91 91 N N/A 29.94 1014 3 5 N/A
4:15 am 04:15 Clear with Mist and Fog 74 23.6 72 22 91 91 N N/A 29.94 1014 3 4 N/A
4:35 am 04:35 Clear with Mist and Fog 74 23.6 72 22 91 91 N N/A 29.94 1014 4 6 N/A
4:55 am 04:55 Clear with Mist and Fog 74 23.2 71 21.6 91 91 N N/A 29.94 1014 4 6 N/A
5:15 am 05:15 Clear with Mist and Fog 72 22.3 69 20.8 91 91 N N/A 29.94 1014 3 5 N/A
5:35 am 05:35 Clear with Mist and Fog 72 22.3 69 20.8 91 91 N N/A 29.94 1014 3 4 N/A
5:55 am 05:55 Clear with Mist and Fog 72 22.3 69 20.8 91 91 N N/A 29.94 1014 2 3 N/A
6:15 am 06:15 Clear with Mist and Fog 72 22.1 69 20.6 91 91 N N/A 29.94 1014 3 4 N/A
6:35 am 06:35 Sunny with Mist and Fog 71 21.6 68 20.1 91 91 N 5 7 29.97 1015 3 4 N/A
6:55 am 06:55 Mostly Cloudy with Mist and Fog 71 21.8 69 20.3 91 91 N N/A 29.97 1015 2 3 N/A
7:15 am 07:15 Sunny with Mist and Fog 71 21.7 68 20.2 91 91 N N/A 29.97 1015 3 4 N/A
7:35 am 07:35 Sunny with Mist and Fog 74 23.6 72 22.1 91 91 N N/A 29.97 1015 3 4 N/A
7:55 am 07:55 Sunny with Mist and Fog 74 23.6 72 22 91 91 N N/A 29.97 1015 3 4 N/A
8:15 am 08:15 Sunny with Mist and Fog 74 23.6 72 22 91 91 N N/A 29.97 1015 3 5 N/A
8:35 am 08:35 Sunny with Mist and Fog 77 25.1 74 23.2 89 89 N N/A 29.97 1015 4 6 N/A
8:55 am 08:55 Sunny with Mist and Fog 77 25.1 73 23 88 88 N N/A 29.97 1015 4 6 N/A
9:15 am 09:15 Hazy 80 26.5 75 24 86 86 N N/A 29.97 1015 5 8 N/A
9:35 am 09:35 Sunny 81 27 76 24.3 85 85 N N/A 29.97 1015 7 11 N/A
9:55 am 09:55 Sunny 82 28 76 24.6 82 82 N N/A 29.94 1014 7 11 N/A
10:15 am 10:15 Sunny 83 28.2 75 23.9 78 78 N N/A 29.94 1014 10 16 N/A
10:35 am 10:35 Sunny 84 28.7 75 23.8 75 75 N N/A 29.94 1014 10 16 N/A
10:55 am 10:55 Sunny 85 29.4 76 24.3 74 74 WSW 3 6 29.94 1014 10 16 N/A
11:15 am 11:15 Partly Cloudy 87 30.7 77 25.1 72 72 SW 3 6 29.94 1014 10 16 N/A
11:35 am 11:35 Partly Cloudy 90 32.1 78 25.7 69 69 WSW 5 7 29.94 1014 10 16 N/A
11:55 am 11:55 Partly Cloudy 90 32.1 77 24.8 65 65 SW 5 7 29.94 1014 10 16 N/A
12:15 pm 12:15 Partly Cloudy 90 32.1 76 24.4 64 64 WSW 3 6 29.94 1014 N/A N/A
12:35 pm 12:35 Partly Cloudy 90 32.1 77 24.8 65 65 SSW 3 6 29.94 1014 10 16 N/A
12:55 pm 12:55 Partly Cloudy 90 32.1 77 24.8 65 65 SW 5 7 29.91 1013 N/A N/A
1:15 pm 13:15 Partly Cloudy 90 32.1 76 24.2 63 63 N N/A 29.91 1013 N/A N/A
1:35 pm 13:35 Partly Cloudy 91 32.5 76 24.2 62 62 SW 3 6 29.91 1013 N/A N/A
1:55 pm 13:55 Sunny 92 33.5 77 24.8 60 60 SW 5 7 29.91 1013 N/A N/A
2:15 pm 14:15 Sunny 95 34.9 79 26 60 60 SW 6 9 29.91 1013 N/A N/A
2:35 pm 14:35 Partly Cloudy 91 32.5 76 24.3 62 62 WSW 3 6 29.91 1013 N/A N/A
2:55 pm 14:55 Partly Cloudy N/A N/A N/A SW 3 6 N/A N/A N/A
3:15 pm 15:15 Mostly Cloudy 90 32.1 76 24.7 65 65 undefined N/A N/A N/A N/A
3:35 pm 15:35 Cloudy with Heavy Rain 76 24.7 72 22.2 86 86 NNW 3 6 29.97 1015 1 2 N/A
3:55 pm 15:55 Mostly Cloudy with Light Rain 77 25.1 74 23.1 89 89 SSE 5 7 29.94 1014 10 16 N/A
4:15 pm 16:15 Sunny 78 25.3 73 22.8 86 86 N N/A 29.91 1013 10 16 N/A
4:35 pm 16:35 Sunny 80 26.5 74 23.6 84 84 N N/A 29.91 1013 10 16 N/A
4:55 pm 16:55 Partly Cloudy 80 26.5 73 23 81 81 S 6 9 29.94 1014 10 16 N/A
5:15 pm 17:15 Mostly Cloudy 81 27.2 75 23.8 82 82 SSW 6 9 29.94 1014 10 16 N/A
5:35 pm 17:35 Partly Cloudy 82 28 76 24.4 81 81 SW 5 7 29.88 1012 10 16 N/A
5:55 pm 17:55 Sunny 83 28.5 76 24.6 79 79 SW 6 9 29.91 1013 10 16 N/A
6:15 pm 18:15 Sunny 83 28.6 77 24.8 80 80 S 6 9 29.88 1012 10 16 N/A
6:35 pm 18:35 Partly Cloudy 83 28.3 76 24.5 80 80 SSE 6 9 29.88 1012 10 16 N/A
6:55 pm 18:55 Partly Cloudy 82 28 74 23.6 77 77 S 7 11 29.88 1012 10 16 N/A
7:15 pm 19:15 Mostly Cloudy 81 27.4 75 23.7 80 80 ESE 7 11 29.94 1014 10 16 N/A
7:35 pm 19:35 Cloudy with Rain 80 26.5 75 24 86 86 SSW 3 6 29.94 1014 2 2 N/A
7:55 pm 19:55 Cloudy with Light Rain 80 26.5 76 24.2 87 87 N N/A 29.94 1014 5 8 N/A
8:15 pm 20:15 Partly Cloudy with Mist and Fog 80 26.5 76 24.2 87 87 SSW 5 7 29.94 1014 5 8 N/A
8:35 pm 20:35 Sunny 80 26.5 75 24 86 86 N N/A 29.94 1014 7 11 N/A
8:55 pm 20:55 Clear with Mist and Fog 80 26.4 76 24.4 89 89 N N/A 29.94 1014 3 5 N/A
9:15 pm 21:15 Clear with Mist and Fog 77 25.1 74 23.2 89 89 W 3 6 29.94 1014 4 6 N/A
9:35 pm 21:35 Clear with Mist and Fog 77 25.1 74 23.3 90 90 N N/A 29.94 1014 4 6 N/A
9:55 pm 21:55 Clear with Mist and Fog 77 25.1 74 23.5 91 91 WSW 3 6 29.94 1014 5 8 N/A
10:15 pm 22:15 Partly Cloudy with Mist and Fog 77 25.1 74 23.5 91 91 WSW 3 6 29.97 1015 4 6 N/A
10:35 pm 22:35 Clear with Mist and Fog 77 25.1 74 23.5 91 91 SW 3 6 29.97 1015 4 6 N/A
10:55 pm 22:55 Clear with Mist and Fog 77 25.1 74 23.5 91 91 SW 3 6 29.97 1015 4 6 N/A
11:15 pm 23:15 Clear with Mist and Fog 77 25.1 74 23.5 91 91 SW 3 6 29.97 1015 5 8 N/A
11:35 pm 23:35 Clear with Mist and Fog 77 25.1 74 23.4 90 90 SW 3 6 29.97 1015 5 8 N/A
11:55 pm 23:55 Clear with Mist and Fog 77 25.1 74 23.5 91 91 N N/A 29.97 1015 4 6 N/A

Powered by AerisWeather